map of BLL home
BLL - Airport
Location
City:  Billund, Denmark
ICAO:EKBI
IATA:BLL

Details
Type:Airport (Aerodrome, Airfield)
Latitude:5544'25"N (55.740322)
Longitude:909'06"E (9.151778)
Elevation:247 ft (75 m)
Variation:2.85E (WMM2015v2 magnetic declination)
0.19 annual change
Runways:1
Longest:10171 × 148 ft (3100 × 45 m), paved

Time
Time Zone:UTC+1 (DST+2)
Local Time:

Weather
METAR:EKBI 041350Z AUTO 19012KT 4100 -RASN OVC007/// 01/00 Q1015
TAF:EKBI 041101Z 0412/0512 19013KT 5000 OVC003
TEMPO 0412/0423 19018G30KT 3000 RASNDZ BR BKN005
FM042300 24015KT 9999 BKN015
TEMPO 0423/0512 4500 SHRA BKN012

Related Locations
Nearby:
Farthest:CHT: 11569 mi / 18619 km
Waitangi [Tuuta], CIT, NZ

Find:

   beyond  
but within

Other Information
Maps:
NOTAMs:
Links:
Sources:

  
  • flag of Denmark
  

Sectional Chart

Flight Planning
at skyvector.com

Satellite Image

Google Maps Satellite view

 

Copyright © 2004-2019 Karl L. Swartz. All rights reserved.
The Great Circle Mapper name and logo are trademarks of the Great Circle Mapper.
All other trademarks mentioned herein belong to their respective owners.
Please see credits for attibutions and further copyright information.

  Follow gcmap on Facebook Follow gcmap on Twitter GCmap on LinkedIn

hCard Microformat

Geo Microformat